Weather History for Athens Eleftherios, Greece

Change the Weather History Date:

Tuesday, September 17, 2013

  Actual Average (LGEL) Record (LGEL)
Temperature  
Mean Temperature 74 °F -  
Max Temperature 84 °F 81 °F 93 °F (2011)
Min Temperature 64 °F 64 °F 57 °F (1998)
Cooling Degree Days 9    
Growing Degree Days 24 (Base 50)    
Moisture  
Dew Point 56 °F    
Average Humidity 53    
Maximum Humidity 77    
Minimum Humidity 30    
Precipitation  
Precipitation 0.00 in - - ()
Sea Level Pressure  
Sea Level Pressure 29.69 in    
Wind  
Wind Speed 6 mph ()    
Max Wind Speed 20 mph    
Max Gust Speed 24 mph    
Visibility 6.2 miles    
Events      
Averages and records for this station are not official NWS values.
T = Trace of Precipitation, MM = Missing Value Source: Averaged Metar Reports

Daily Weather History Graph

Daily Weather History Graph

Search for Another Location

Airport:

Trip Planner

Search our weather history database for the weather conditions in past years. The results will help you decide how hot, cold, wet, or windy it might be!

Date:

Astronomy

Sep. 17, 2013 Rise Set
Actual Time 7:07 AM EEST 7:29 PM EEST
Civil Twilight 6:41 AM EEST 7:55 PM EEST
Nautical Twilight 6:10 AM EEST 8:26 PM EEST
Astronomical Twilight 5:38 AM EEST 8:57 PM EEST
Moon 6:03 PM EEST (9/17) 4:42 AM EEST (9/17)
Length of Visible Light 13h 14m
Length of Day
12h 21m
Waxing Gibbous, 94% of the Moon is Illuminated
Sep 17
Waxing Gibbous
Sep 19
Full
Sep 27
Last Quarter
Oct 5
New
Oct 12
First Quarter

Hourly Weather History & Observations

Time (EEST) Temp. Heat Index Dew Point Humidity Pressure Visibility Wind Dir Wind Speed Gust Speed Precip Events Conditions
12:20 AM 73.4 °F - 57.2 °F 57% 29.71 in 6.2 mi West 11.5 mph - N/A   Partly Cloudy
12:50 AM 73.4 °F - 55.4 °F 53% 29.71 in 6.2 mi West 9.2 mph - N/A   Partly Cloudy
1:20 AM 73.4 °F - 57.2 °F 57% 29.71 in 6.2 mi SSE 5.8 mph - N/A   Partly Cloudy
1:50 AM 73.4 °F - 57.2 °F 57% 29.71 in 6.2 mi SE 5.8 mph - N/A   Partly Cloudy
2:20 AM 73.4 °F - 57.2 °F 57% 29.71 in 6.2 mi Variable 2.3 mph - N/A   Partly Cloudy
2:50 AM 71.6 °F - 57.2 °F 60% 29.71 in 6.2 mi Variable 3.5 mph - N/A   Partly Cloudy
3:20 AM 69.8 °F - 57.2 °F 64% 29.71 in 6.2 mi Variable 3.5 mph - N/A   Partly Cloudy
3:50 AM 71.6 °F - 57.2 °F 60% 29.68 in 6.2 mi Variable 3.5 mph - N/A   Partly Cloudy
4:20 AM 69.8 °F - 57.2 °F 64% 29.71 in 6.2 mi ESE 4.6 mph - N/A   Partly Cloudy
4:50 AM 68.0 °F - 57.2 °F 68% 29.68 in 6.2 mi South 3.5 mph - N/A   Partly Cloudy
5:20 AM 66.2 °F - 57.2 °F 73% 29.68 in 6.2 mi Variable 1.2 mph - N/A   Partly Cloudy
5:50 AM 66.2 °F - 55.4 °F 68% 29.68 in 6.2 mi Variable 2.3 mph - N/A   Partly Cloudy
6:20 AM 64.4 °F - 57.2 °F 77% 29.68 in 6.2 mi Variable 1.2 mph - N/A   Partly Cloudy
6:50 AM 66.2 °F - 55.4 °F 68% 29.68 in 6.2 mi Variable 1.2 mph - N/A   Partly Cloudy
7:20 AM 64.4 °F - 53.6 °F 68% 29.71 in 6.2 mi West 4.6 mph - N/A   Partly Cloudy
7:50 AM 64.4 °F - 55.4 °F 73% 29.71 in 6.2 mi Variable 1.2 mph - N/A   Partly Cloudy
8:20 AM 69.8 °F - 57.2 °F 64% 29.71 in - NE 3.5 mph - N/A   Clear
8:50 AM 71.6 °F - 59.0 °F 64% 29.71 in - Variable 1.2 mph - N/A   Clear
9:50 AM 75.2 °F - 55.4 °F 50% 29.71 in - Variable 1.2 mph - N/A   Clear
10:20 AM 77.0 °F - 55.4 °F 47% 29.71 in - SSE 4.6 mph - N/A   Clear
10:50 AM 78.8 °F - 53.6 °F 42% 29.71 in 6.2 mi Variable 2.3 mph - N/A   Partly Cloudy
11:20 AM 80.6 °F - 51.8 °F 37% 29.71 in 6.2 mi Variable 2.3 mph - N/A   Partly Cloudy
11:50 AM 82.4 °F - 51.8 °F 35% 29.71 in 6.2 mi WSW 5.8 mph - N/A   Scattered Clouds
12:20 PM 82.4 °F 81.4 °F 53.6 °F 37% 29.71 in 6.2 mi West 9.2 mph 24.2 mph N/A   Scattered Clouds
12:50 PM 78.8 °F - 59.0 °F 51% 29.71 in 6.2 mi NW 4.6 mph - N/A   Scattered Clouds
1:20 PM 78.8 °F - 59.0 °F 51% 29.71 in 6.2 mi SE 10.4 mph - N/A   Scattered Clouds
1:50 PM 80.6 °F 80.8 °F 57.2 °F 45% 29.68 in 6.2 mi SE 6.9 mph - N/A   Scattered Clouds
2:20 PM 80.6 °F 80.8 °F 57.2 °F 45% 29.68 in 6.2 mi WSW 9.2 mph - N/A   Scattered Clouds
2:50 PM 84.2 °F - 50.0 °F 30% 29.68 in 6.2 mi WSW 12.7 mph - N/A   Scattered Clouds
3:20 PM 84.2 °F - 51.8 °F 33% 29.68 in 6.2 mi SW 13.8 mph - N/A   Scattered Clouds
3:50 PM 84.2 °F - 51.8 °F 33% 29.65 in 6.2 mi SW 13.8 mph - N/A   Scattered Clouds
4:20 PM 82.4 °F 81.4 °F 53.6 °F 37% 29.65 in 6.2 mi SSW 19.6 mph - N/A   Scattered Clouds
4:50 PM 80.6 °F 80.3 °F 53.6 °F 39% 29.65 in 6.2 mi SW 16.1 mph - N/A   Scattered Clouds
5:20 PM 80.6 °F 80.5 °F 55.4 °F 42% 29.65 in 6.2 mi SSW 19.6 mph - N/A   Scattered Clouds
5:50 PM 80.6 °F 80.3 °F 53.6 °F 39% 29.65 in 6.2 mi SSW 16.1 mph - N/A   Scattered Clouds
6:20 PM 78.8 °F - 53.6 °F 42% 29.65 in 6.2 mi SSW 16.1 mph - N/A   Scattered Clouds
6:50 PM 78.8 °F - 57.2 °F 47% 29.65 in 6.2 mi SSW 15.0 mph - N/A   Mostly Cloudy
7:20 PM 77.0 °F - 53.6 °F 44% 29.65 in 6.2 mi SW 8.1 mph - N/A   Scattered Clouds
7:50 PM 77.0 °F - 57.2 °F 50% 29.65 in 6.2 mi SW 8.1 mph - N/A   Scattered Clouds
8:20 PM 75.2 °F - 59.0 °F 57% 29.65 in 6.2 mi SW 4.6 mph - N/A   Scattered Clouds
8:50 PM 75.2 °F - 60.8 °F 61% 29.68 in 6.2 mi SW 5.8 mph - N/A   Scattered Clouds
9:20 PM 75.2 °F - 60.8 °F 61% 29.68 in 6.2 mi SW 4.6 mph - N/A   Scattered Clouds
9:50 PM 73.4 °F - 60.8 °F 65% 29.68 in 6.2 mi SSW 8.1 mph - N/A   Partly Cloudy
10:20 PM 73.4 °F - 62.6 °F 69% 29.68 in 6.2 mi SSE 6.9 mph - N/A   Partly Cloudy
10:50 PM 75.2 °F - 60.8 °F 61% 29.65 in 6.2 mi SSW 9.2 mph - N/A   Partly Cloudy
11:20 PM 73.4 °F - 57.2 °F 57% 29.68 in 6.2 mi SSE 6.9 mph - N/A   Partly Cloudy
11:50 PM 75.2 °F - 53.6 °F 47% 29.68 in 6.2 mi South 5.8 mph - N/A   Partly Cloudy